Última Atualização: 01:45 - 16/05/2022

Relatório Meteorológico da Estação Santa Cruz
Dia Hora Direção Vento (graus) Velocidade Vento (Km/h) Temperatura (celsius) Pressão (hPa) Umidade (%)
16/05/2022 01:30:00 - - 21,8 - 89
16/05/2022 01:15:00 - - 21,8 - 88
16/05/2022 01:00:00 - - 22,1 - 87
16/05/2022 00:45:00 - - 22,4 - 86
16/05/2022 00:30:00 - - 22,4 - 84
16/05/2022 00:15:00 - - 22,0 - 81
16/05/2022 00:00:00 - - 22,2 - 80
15/05/2022 23:45:00 - - 22,3 - 79
15/05/2022 23:30:00 - - 22,7 - 78
15/05/2022 23:15:00 - - 23,1 - 77
15/05/2022 23:00:00 - - 23,2 - 76
15/05/2022 22:45:00 - - 23,1 - 76
15/05/2022 22:30:00 - - 23,2 - 76
15/05/2022 22:15:00 - - 23,5 - 75
15/05/2022 22:00:00 - - 23,7 - 75
15/05/2022 21:45:00 - - 23,3 - 76
15/05/2022 21:30:00 - - 23,0 - 77
15/05/2022 21:15:00 - - 22,8 - 77
15/05/2022 21:00:00 - - 23,4 - 76
15/05/2022 20:45:00 - - 23,5 - 76
15/05/2022 20:30:00 - - 23,4 - 76
15/05/2022 20:15:00 - - 23,6 - 75
15/05/2022 20:00:00 - - 23,8 - 74
15/05/2022 19:45:00 - - 23,8 - 75
15/05/2022 19:30:00 - - 23,8 - 75
15/05/2022 19:15:00 - - 23,5 - 76
15/05/2022 19:00:00 - - 23,3 - 76
15/05/2022 18:45:00 - - 23,5 - 76
15/05/2022 18:30:00 - - 23,5 - 75
15/05/2022 18:15:00 - - 23,5 - 75
15/05/2022 18:00:00 - - 23,6 - 74
15/05/2022 17:45:00 - - 24,1 - 73
15/05/2022 17:30:00 - - 24,3 - 73
15/05/2022 17:15:00 - - 24,7 - 72
15/05/2022 17:00:00 - - 24,8 - 71
15/05/2022 16:45:00 - - 25,0 - 70
15/05/2022 16:30:00 - - 25,0 - 70
15/05/2022 16:15:00 - - 25,2 - 70
15/05/2022 16:00:00 - - 25,4 - 69
15/05/2022 15:45:00 - - 25,3 - 70
15/05/2022 15:30:00 - - 25,3 - 70
15/05/2022 15:15:00 - - 25,3 - 69
15/05/2022 15:00:00 - - 26,3 - 69
15/05/2022 14:45:00 - - 25,8 - 69
15/05/2022 14:30:00 - - 25,4 - 73
15/05/2022 14:15:00 - - 25,5 - 75
15/05/2022 14:00:00 - - 24,4 - 78
15/05/2022 13:45:00 - - 24,0 - 80
15/05/2022 13:30:00 - - 23,8 - 80